{"data":{"norad_id":68849,"intl_designator":"2026-094L","name":"STARLINK-37492","alt_names":[],"object_type":"PAYLOAD","status":"ACTIVE","operator":null,"country":"US","launch_date":"2026-04-26","launch_site_code":"AFWTR","launch_vehicle":null,"mission":null,"orbit_class":"UNKNOWN","rcs_meters":null,"size_class":null,"mass_kg":null,"dimensions":null,"purposes":["comms"],"wikipedia_slug":null,"has_3d_model":false,"image_url":null,"decayed_at":null,"tle_current":{"epoch":"2026-09-20T00:31:11.748000Z","epoch_age_seconds":56855,"freshness":"FRESH","line1":"1 68849U 26094L   26263.02166375  .00018656  00000+0  57837-3 0  9993","line2":"2 68849  97.2840 276.1392 0002029  87.7757 272.3718 15.33466691 22582","mean_motion":15.33466691,"eccentricity":0.0002029,"inclination_deg":97.284,"raan_deg":276.1392,"arg_perigee_deg":87.7757,"mean_anomaly_deg":272.3718,"bstar":0.00057837,"rev_number":2258,"period_min":93.90487634661,"perigee_km":464.09006847082,"apogee_km":466.86720769675,"semimajor_km":6843.6156380838,"source":"CELESTRAK","updated_at":"2026-09-20T09:00:44.016538Z"}}}